Regional Weather Roundup
Issued by NWS

Home | Current Version | Previous Version | Graphics & Text | Print | Product List | Glossary Off
Versions: 1 2 3 4 5 6 7 8 9 10 11 12 13 14 15 16 17 18 19 20 21 22 23 24 25 26 27

000
ASUS45 KBOU 190907
RWRCO

WEATHER ROUNDUP FOR COLORADO
NATIONAL WEATHER SERVICE DENVER/BOULDER CO
300 AM MDT THU OCT 19 2017

NOTE: "FAIR" INDICATES FEW OR NO CLOUDS BELOW 12000 FEET WITH NO
SIGNIFICANT WEATHER AND/OR OBSTRUCTIONS TO VISIBILITY.

COZ001>005-013-030-031-191000-
...NORTHWEST COLORADO...

CITY           SKY/WX    TMP DP  RH WIND       PRES   REMARKS
CRAIG          FAIR      25  18  74 CALM      30.19S
HAYDEN         FAIR      38  16  40 E10       30.20S
MEEKER         FAIR      34  17  50 VRB3      30.19S
RABBIT EARS PA FAIR      43   9  24 S7        30.37F
STEAMBOAT SPGS FAIR      32  16  50 CALM      30.22S
WALDEN         NOT AVBL
$$

COZ006>008-011-191000-
...WEST CENTRAL VALLEYS...

CITY           SKY/WX    TMP DP  RH WIND       PRES   REMARKS
GRAND JUNCTION FAIR      48  17  29 SE12      30.11S
MONTROSE       FAIR      40  20  44 SE7       30.19S
EAGLE          FAIR      31  18  58 CALM      30.27S
RIFLE          FAIR      36  19  50 CALM      30.18S
DELTA          FAIR      42  15  33 CALM      30.16S
NUCLA          NOT AVBL
$$

COZ017>023-064>068-191000-
...SOUTHWEST COLORADO...

CITY           SKY/WX    TMP DP  RH WIND       PRES   REMARKS
DURANGO        FAIR      35  22  58 NE6       30.21S WCI  30
CORTEZ         FAIR      35  26  69 NE5       30.17S WCI  31
PAGOSA SPRINGS FAIR      35  17  47 CALM      30.27F
TELLURIDE      NOT AVBL
WOLF CREEK PAS FAIR      37  10  32 SW7       30.52F
$$

COZ009-010-012-014-032>034-037-058>063-191000-
...CENTRAL COLORADO...

CITY           SKY/WX    TMP DP  RH WIND       PRES   REMARKS
ASPEN          FAIR      33  17  51 SW6       30.25F WCI  28
BUENA VISTA    FAIR      35  13  41 CALM      30.31S
COPPER MTN     FAIR      45   0  15 S14       30.48R
BERTHOUD PASS  FAIR      36  27  69 W17G24    30.48F
COTTONWOOD PAS FAIR      50  -8   9 SW6       30.37F
GUNNISON       FAIR      27  16  63 CALM      30.33S
KREMMLING      FAIR      28  19  69 CALM      30.31R
LEADVILLE      FAIR      28   9  44 CALM      30.37S
MONARCH PASS   FAIR      39   5  24 SW8       30.59S
SALIDA         NOT AVBL
SUNLIGHT       FAIR      39   1  20 S8        30.42F
WILKERSON PASS FAIR      39   3  22 SW12      30.46F
$$

COZ069>075-191000-
...SAN LUIS VALLEY/SANGRE DE CRISTO MOUNTAINS...

CITY           SKY/WX    TMP DP  RH WIND       PRES   REMARKS
ALAMOSA        FAIR      28  17  63 W5        30.28S WCI  23
DEL NORTE      FAIR      38  14  37 W13       30.30S
LA VETA PASS   FAIR      45  12  26 SW12      30.50F
SAGUACHE       FAIR      36  14  41 N13       30.30R
$$

COZ035-036-038>040-191000-
...NORTHERN COLORADO FRONT RANGE...

CITY           SKY/WX    TMP DP  RH WIND       PRES   REMARKS
DENVER INTL AP FAIR      54  23  30 SW9       30.09F
DMNS CITY PARK   N/A     50  18  28 E8        30.10S
AURORA         PTCLDY    52  24  33 S16       30.10F
FRONT RANGE AP FAIR      55  23  28 S14G26    30.11F
ERIE MUNI ARPT FAIR      37  27  66 CALM      30.15F
BOULDER MUN AP FAIR      46  27  46 S3        30.10F
CENTENNIAL     FAIR      52  23  32 S8        30.12F
BROOMFIELD     FAIR      52  21  30 N7        30.11F
FORT COLLINS   FAIR      38  28  67 N3        30.10F
LONGMONT       FAIR      36  27  70 CALM      30.11F
$$

COZ041-046-047-076>085-087-088-191000-
...PIKES PEAK/PALMER DIVIDE AND SOUTHERN FOOTHILLS...

CITY           SKY/WX    TMP DP  RH WIND       PRES   REMARKS
COLO. SPRINGS  FAIR      42  25  50 N8        30.19F
A. F. ACADEMY  FAIR      34  22  62 N9        30.20S WCI  27
SCHRIEVER AFB  FAIR      48  19  32 N7        30.18F
CHEYENNE MTN   NOT AVBL
ELLICOTT       FAIR     N/A N/A N/A CALM      30.16F
FALCON         FAIR      41  22  47 W6        30.22F
FORT CARSON    FAIR      42  24  49 NW5       30.15F
LIMON          FAIR      30  27  88 N6        30.15F WCI  24
MONUMENT HILL  NOT AVBL
CANON CITY     CLEAR     48  21  34 W15       30.15F
WALSENBURG     FAIR      41  21  45 W6        30.17F
TRINIDAD       FAIR      50  21  32 SW13      30.16S
$$

COZ042>045-048>051-090-091-191000-
...NORTHEAST COLORADO...

CITY           SKY/WX    TMP DP  RH WIND       PRES   REMARKS
GREELEY ARPT   FAIR      33  27  78 NW7       30.09F WCI  27
AKRON          FAIR      50  29  44 S14       30.09F
BURLINGTON     FAIR      42  32  67 S5        30.10F
WRAY           FAIR      37  32  81 W6        30.10F
YUMA           NOT AVBL
STERLING       FAIR      37  32  81 N6        30.09F
HOLYOKE        FAIR      37  32  81 W7        30.10F
FORT MORGAN    FAIR      40  24  52 N8        30.10F
$$

COZ086-089-092>099-191000-
...SOUTHEAST COLORADO...

CITY           SKY/WX    TMP DP  RH WIND       PRES   REMARKS
PUEBLO         FAIR      41  27  57 CALM      30.12F
LA JUNTA       FAIR      44  31  60 SW6       30.10S
LAMAR          FAIR      38  29  70 SW5       30.07F
SPRINGFIELD      N/A     43  37  79 W6        30.09F
$$




USA.gov is the U.S. government's official web portal to all federal, state and local government web resources and services.